CASSIOPE (39265 NORAD) Tracking and Keplerian Element Data

This shows tracking and keplerian element data for the satellite.

Feedback or suggestion? Click here.




ElementValue
Catalog39265
NameCASSIOPE
Epoch Orbit24742
Epoch Day195.92475337
Epoch Year2018
RAAN327.7515
Inclination80.9709
Eccentricity0.0676433
Argument of Perigee193.6535
Mean Anonmoly164.5533
Mean Motion14.25619405
Decay Rate4.841E-05
L11 39265U 13055A 18195.92475337 .00004841 00000-0 13965-3 0 9997
L22 39265 80.9709 327.7515 0676433 193.6535 164.5533 14.25619405247424

Live tracking and technical data element details for CASSIOPE (NORAD 39265). CASSIOPE can be tracked NOW for your location showing map with azimuth and elevation plus other details from your city location.

Track the satellite on the map from your city or location and see movement details for azimuth, elevation, latitude, longitude, range, height, and movement on the map or in text.







IsCatalogInMostPopularTable: catalog: 39265, numindb: 67
Update: records affected: 1



GetName: 39265 CASSIOPE

Hit Count: updated at: Sun, 15 Jul 2018 22:58:46 GMT